Regional Weather Roundup
Issued by NWS

Home | Current Version | Previous Version | Text Only | Print | Product List | Glossary Off
Versions: 1 2 3 4 5 6 7 8 9 10 11 12 13 14 15 16 17 18 19 20 21 22 23 24 25 26 27 28 29 30 31 32 33 34 35 36 37 38 39 40 41 42 43 44 45 46 47 48 49 50

727
ASUS43 KOAX 291502
RWRNE

WEATHER ROUNDUP FOR NEBRASKA
NATIONAL WEATHER SERVICE OMAHA NE
1000 AM CDT WED MAR 29 2017

NOTES: SATELLITE DATA IS BEING USED TO AUGMENT CLOUD COVER ABOVE
       12000 FEET.
       "FAIR" INDICATES FEW OR NO CLOUDS BELOW 12,000 FEET WITH NO
       SIGNIFICANT WEATHER AND/OR OBSTRUCTIONS TO VISIBILITY.

  * THESE STATIONS DO NOT REPORT WEATHER SUCH AS RAIN...SNOW OR FOG.

NEZ001>004-019>022-054>056-291600-
NEBRASKA PANHANDLE

CITY           SKY/WX    TMP DP  RH WIND       PRES   REMARKS
SCOTTSBLUFF    CLOUDY    43  39  86 NW9       30.11S
ALLIANCE       CLOUDY    41  38  89 N6        30.10R
CHADRON        CLOUDY    44  39  82 W3        30.11S
KIMBALL        CLOUDY    39  39 100 N9        30.10S WCI  32
SIDNEY         CLOUDY    39  37  92 N13       30.10S WCI  31
$$

NEZ057>060-069>072-079>082-291600-
SOUTHWEST NEBRASKA

CITY           SKY/WX    TMP DP  RH WIND       PRES   REMARKS
NORTH PLATTE   CLOUDY    43  40  89 N14G26    30.04S
IMPERIAL       CLOUDY    42  39  89 N17       30.06R
LEXINGTON      CLOUDY    43  41  92 NE20      30.00S
MCCOOK         CLOUDY    43  42  97 N21G26    29.99S
OGALLALA       CLOUDY    43  40  90 N13       30.08R
$$

NEZ005>010-023>029-035>040-094-291600-
NORTH CENTRAL NEBRASKA

CITY           SKY/WX    TMP DP  RH WIND       PRES   REMARKS
VALENTINE      CLOUDY    46  41  82 N7        30.11S
AINSWORTH      CLOUDY    43  43 100 N13G18    30.10S
BROKEN BOW     LGT RAIN  44  40  85 N17G25    30.02S
O`NEILL        CLOUDY    44  43  97 N10       30.08F
ORD            CLOUDY    44  40  85 NE13G23   30.03S FOG
THEDFORD       CLOUDY    43  41  93 N8        30.09R
$$

NEZ041-046>049-061>064-073>077-083>087-291600-
SOUTH CENTRAL NEBRASKA

CITY           SKY/WX    TMP DP  RH WIND       PRES   REMARKS
GRAND ISLAND   CLOUDY    44  44 100 NE20      29.98F
AURORA         DRIZZLE   44  44 100 NE21G28   29.96F
HASTINGS       CLOUDY    44  42  93 NE22      29.95F
HEBRON         LGT RAIN  46  45  97 NE18G24   29.89F
HOLDREGE       CLOUDY    42  41  95 NE17      29.96S FOG
KEARNEY *      CLOUDY    43  39  87 N18       29.98S
YORK           PTSUNNY   45  45 100 NE23      29.96F
$$

NEZ011>018-030>034-042>045-291600-
NORTHEAST NEBRASKA

CITY           SKY/WX    TMP DP  RH WIND       PRES   REMARKS
NORFOLK        CLOUDY    44  41  89 NE16G25   30.03F
ALBION         CLOUDY    45  42  88 NE14      30.03S FOG
BLAIR          RAIN      44  42  94 NE15      30.00F
FREMONT        RAIN      44  43  97 NE10      30.02S
TEKAMAH        LGT RAIN  45  41  86 NE14      30.04S
WAYNE          DRIZZLE   45  45  99 E17       30.06F
$$

NEZ050>053-065>068-078-088>093-291600-
SOUTHEAST NEBRASKA

CITY           SKY/WX    TMP DP  RH WIND       PRES   REMARKS
LINCOLN        LGT RAIN  46  44  93 NE18G25   29.97F FOG
OMAHA EPPLEY   LGT RAIN  45  40  82 NE18      30.01S
BEATRICE       LGT RAIN  46  46  98 NE16G22   29.89F
FALLS CITY     LGT RAIN  47  46  97 NE20      29.87F
NEBRASKA CITY  LGT RAIN  44  44 100 NE18G24   29.93F
PLATTSMOUTH    LGT RAIN  44  41  89 NE16      29.97S
$$

NEZ044-045-051>053-067-291600-
OMAHA AREA

CITY           SKY/WX    TMP DP  RH WIND       PRES   REMARKS
OMAHA EPPLEY   LGT RAIN  45  40  82 NE18      30.01S
BLAIR          RAIN      44  42  94 NE15      30.00F
FREMONT        RAIN      44  43  97 NE10      30.02S
MILLARD        LGT RAIN  47  44  91 E9        30.00S
PLATTSMOUTH    LGT RAIN  44  41  89 NE16      29.97S
WAHOO          DRIZZLE   45  43  94 NE16G23   29.99F
$$




USA.gov is the U.S. government's official web portal to all federal, state and local government web resources and services.